Location: Grange Rosano
(44.4500°N, 6.9667°E)
Time: 19:33:27
(UTC+00:00)

FENGYUN 3A - Pass Details

Date: 26 May 2022
Orbit: 823 x 836 km, 98.5° (Epoch: 01 July)

Event Time Altitude Azimuth Distance (km) Brightness Sun altitude
Rises 03:10:05 0° 12° (NNE) 3,370 7.7 -7.3°
Reaches altitude 10° 03:12:27 10° 11° (N) 2,434 6.9 -7.0°
Maximum altitude 03:17:50 78° 286° (WNW) 848 3.7 -6.2°
Drops below altitude 10° 03:23:11 10° 201° (SSW) 2,422 5.6 -5.5°
Enters shadow 03:25:28 - 200° (SSW) 3,330 6.3 -5.2°
